Temperature
4 4 4 4 4 4 3 3 3 2 2 3 3 4 4 3 3 3 3 3 3 3 3 3 3 3 3 3 3 3 4 4 4 4 4 4 4 4
4 4 3 3 3 3 3 3 2 2 2 3 3 3 3 3 3 3 3 3 3 3 3 3 3 3 3 3 3 3 3 3 3 3 3 3 3 4
3 3 3 3 3 3 3 2 2 2 2 2 2 2 2 2 2 2 2 2 2 2 2 2 2 2 2 2 2 2 2 3 3 3 3 3 3 3
2 2 2 2 2 2 2 2 2 2 1 1 2 2 2 1 2 2 2 2 2 2 2 2 2 2 2 2 2 2 2 2 2 2 2 2 2 2
2 2 2 2 2 1 1 1 1 1 1 1 1 1 1 1 1 1 1 1 1 1 1 1 1 1 1 1 1 1 1 1 1 2 2 2 2 2
1 1 1 1 1 1 1 1 1 1 1 0 0 0 1 0 0 1 1 1 1 1 1 1 1 1 1 1 1 1 1 1 1 1 1 1 1 1
1 1 1 0 0 0 1 1 0 0 0 0 0 0 -0 -0 -0 -0 -0 0 0 1 1 1 1 1 1 1 1 1 1 1 1 1 1 1 1 1
0 0 0 0 0 0 0 0 -0 -0 -0 -0 -0 -0 -0 -0 -1 -1 -1 -1 -0 -0 -0 0 0 0 0 0 0 0 0 0 0 0 0 0 0 0
-1 -1 -0 -0 -0 -0 -0 -0 -0 -1 -1 -1 -1 -1 -1 -1 -1 -1 -1 -1 -1 -1 -1 -0 -0 -0 -0 -0 -0 -0 -0 -0 0 0 -0 -0 0 0
-1 -1 -1 -1 -1 -1 -1 -1 -1 -1 -1 -1 -1 -1 -1 -1 -1 -1 -1 -1 -1 -1 -1 -1 -1 -1 -0 -1 -0 -1 -1 -0 -0 -0 -0 -0 -0 -0
-2 -2 -1 -1 -1 -1 -1 -1 -1 -1 -1 -1 -2 -2 -2 -2 -2 -2 -2 -2 -2 -1 -1 -1 -1 -1 -1 -1 -1 -1 -1 -1 -1 -1 -1 -1 -1 -1
-2 -2 -2 -2 -2 -2 -2 -2 -1 -1 -2 -2 -2 -2 -2 -2 -2 -2 -2 -2 -2 -2 -2 -2 -2 -2 -2 -1 -1 -1 -1 -1 -1 -1 -1 -1 -1 -1
-3 -3 -2 -2 -2 -2 -2 -2 -2 -2 -2 -2 -2 -2 -2 -2 -2 -2 -2 -2 -2 -2 -2 -2 -2 -2 -3 -2 -2 -2 -2 -2 -2 -1 -1 -1 -1 -1
-3 -3 -3 -3 -3 -3 -3 -3 -3 -3 -2 -2 -2 -3 -2 -2 -2 -2 -3 -2 -3 -3 -2 -3 -3 -3 -3 -3 -3 -2 -2 -2 -2 -2 -2 -2 -1 -1
-4 -4 -3 -3 -3 -3 -3 -3 -3 -3 -3 -3 -3 -3 -3 -3 -3 -3 -3 -3 -3 -3 -3 -3 -3 -3 -3 -3 -3 -3 -3 -2 -2 -2 -2 -2 -2 -2
-4 -4 -4 -4 -3 -3 -3 -3 -3 -3 -4 -4 -4 -4 -3 -3 -3 -3 -3 -3 -3 -3 -3 -3 -3 -3 -3 -3 -3 -3 -3 -3 -3 -2 -2 -2 -2 -2
-4 -4 -4 -4 -4 -4 -4 -4 -4 -4 -4 -4 -4 -4 -4 -4 -4 -4 -4 -3 -3 -3 -3 -3 -3 -3 -3 -3 -3 -3 -3 -3 -3 -3 -3 -2 -2 -2
-5 -5 -5 -5 -5 -4 -4 -4 -5 -5 -4 -4 -4 -4 -4 -4 -4 -4 -4 -4 -4 -4 -4 -3 -3 -3 -3 -4 -4 -3 -3 -3 -3 -3 -3 -3 -3 -3
-5 -5 -5 -5 -5 -5 -5 -5 -5 -5 -5 -5 -5 -5 -5 -4 -4 -4 -4 -4 -4 -4 -4 -4 -4 -4 -4 -4 -4 -4 -4 -4 -3 -3 -3 -3 -3 -3
-5 -6 -6 -6 -6 -6 -6 -6 -6 -5 -5 -5 -5 -5 -5 -5 -5 -5 -5 -5 -4 -4 -4 -4 -4 -4 -5 -5 -5 -4 -4 -4 -4 -3 -3 -3 -3 -3
-6 -6 -6 -6 -6 -6 -6 -6 -6 -6 -6 -6 -6 -5 -5 -5 -5 -5 -5 -5 -5 -5 -4 -4 -4 -5 -5 -5 -5 -4 -4 -4 -4 -4 -4 -3 -3 -3
-6 -6 -6 -6 -6 -6 -6 -6 -6 -6 -6 -6 -6 -6 -6 -5 -5 -5 -5 -5 -5 -5 -5 -5 -5 -5 -5 -5 -5 -5 -4 -4 -4 -4 -4 -4 -4 -4
-6 -6 -6 -6 -6 -6 -6 -6 -6 -6 -6 -6 -6 -6 -6 -6 -6 -5 -5 -5 -5 -5 -5 -5 -5 -5 -5 -5 -5 -5 -4 -4 -4 -4 -3 -4 -4 -4
Wind_Speed
5 5 4 3 3 3 3 3 3 4 6 4 3 3 4 5 8 8 8 11 12 12 12 12 12 13 13 13 13 14 14 14 15 14 15 15 15 15
4 4 4 3 3 3 3 3 3 4 5 3 3 3 4 6 9 8 8 12 12 12 12 12 12 12 12 12 13 13 14 14 14 14 14 14 15 15
4 4 5 4 3 3 3 3 3 3 6 6 3 3 4 5 6 6 8 8 9 11 12 12 12 12 12 12 12 12 13 13 13 12 13 14 15 15
5 5 5 4 4 3 3 4 4 4 5 7 5 4 4 4 5 5 6 7 8 10 11 11 11 11 11 11 11 11 12 12 12 12 13 14 15 15
5 5 5 5 5 4 4 4 4 4 4 5 6 4 4 3 4 5 6 5 7 8 10 10 10 11 11 11 11 12 12 12 11 12 12 13 13 14
4 4 5 5 6 5 5 4 4 3 4 4 5 4 4 3 3 4 5 4 5 6 8 8 9 11 11 11 12 12 12 11 11 11 11 11 12 12
3 3 4 5 6 5 4 4 4 4 4 4 5 5 5 3 4 3 5 5 5 4 4 5 5 5 7 10 11 11 11 11 11 10 10 11 10 11
2 2 2 3 4 5 6 6 6 5 5 5 5 6 6 5 4 4 4 5 5 2 3 5 3 5 5 6 9 10 10 10 10 10 10 11 10 10
1 1 2 2 3 2 3 4 5 7 7 6 6 7 6 5 5 5 5 5 5 4 3 6 4 5 5 7 10 9 10 10 10 9 10 10 10 9
1 1 2 2 3 2 2 3 3 4 5 4 5 6 6 5 5 6 6 5 4 4 3 4 4 4 5 6 9 9 9 10 10 10 9 10 9 8
1 1 1 2 3 3 2 3 3 3 4 5 6 6 7 7 5 3 3 3 5 3 2 2 3 4 4 4 6 9 10 11 10 9 8 9 8 8
1 1 3 3 4 4 2 2 3 3 3 3 4 5 4 5 5 4 4 4 3 3 2 2 3 3 4 3 3 6 7 9 9 8 8 8 8 5
1 2 2 4 4 5 4 3 4 3 2 2 3 3 3 2 2 2 2 3 3 3 2 1 2 2 3 4 3 4 5 5 6 6 8 8 8 6
1 1 2 4 5 4 4 3 3 3 1 2 2 3 3 3 2 2 2 2 2 3 3 2 2 3 3 4 4 4 4 5 4 4 5 7 8 7
1 3 4 5 5 3 3 4 3 2 1 2 3 3 3 3 2 2 2 2 2 3 3 3 3 3 3 4 5 5 4 4 4 4 4 5 4 4
2 3 5 5 5 4 4 3 2 2 1 2 3 3 3 2 2 2 2 2 2 3 3 3 3 3 4 4 4 6 5 4 4 4 4 4 4 4
2 2 2 3 3 3 3 3 3 3 2 2 2 3 3 3 2 2 1 1 2 3 4 3 3 2 3 4 4 5 5 4 4 4 4 4 4 4
3 2 2 3 3 3 3 3 3 3 3 3 2 2 2 2 3 2 2 2 2 3 3 3 3 3 2 2 4 5 4 4 4 4 3 3 5 4
3 2 2 2 3 3 3 2 3 3 3 3 3 3 2 2 2 2 2 2 2 3 3 3 2 2 3 4 3 2 3 4 4 4 3 3 5 5
2 2 2 2 2 3 3 3 3 3 2 3 3 3 2 2 2 2 3 3 3 3 3 3 2 2 2 4 4 4 4 4 4 4 4 4 5 6
2 2 2 2 2 3 3 3 3 3 3 2 2 3 3 2 2 2 2 4 3 3 3 3 4 5 3 2 3 4 4 5 5 4 4 4 4 4
2 2 2 2 2 2 3 3 3 3 3 2 2 3 2 2 2 3 3 3 3 2 3 3 4 3 2 2 4 5 5 5 6 7 5 4 3 2
2 2 2 2 2 3 2 3 3 3 3 2 2 2 3 2 2 2 2 2 2 3 3 3 3 2 2 2 3 4 5 6 5 5 4 7 5 6
Wind_Direction
216 218 226 228 216 217 213 209 229 269 275 263 268 284 291 285 288 293 293 293 296 294 295 297 297 296 296 298 299 300 301 304 304 305 306 306 308 307
220 218 225 226 221 217 213 222 226 243 267 265 263 283 291 292 290 294 292 294 293 294 296 298 298 297 297 297 299 300 300 300 302 303 306 308 308 308
229 225 232 228 226 226 225 228 233 239 263 280 275 279 274 284 296 297 298 294 293 294 296 298 299 298 298 298 298 299 302 302 302 302 305 306 307 306
227 228 234 232 229 228 226 232 239 241 252 275 285 280 274 278 286 292 299 297 292 293 295 298 299 299 301 303 303 303 304 304 303 302 304 304 305 307
230 229 232 224 230 229 227 234 241 251 247 260 277 284 281 285 293 294 294 295 295 298 298 297 299 299 299 300 301 301 302 300 301 302 304 306 309 308
244 239 238 233 234 233 236 236 237 243 247 259 272 281 283 284 282 288 295 296 294 306 303 298 299 302 299 299 299 300 298 296 298 302 305 308 310 311
242 242 243 244 248 250 251 241 234 244 252 260 268 276 278 280 278 280 285 297 293 293 295 295 299 299 302 299 297 298 298 297 298 298 303 306 307 311
238 244 258 260 268 273 272 269 256 249 247 252 264 269 273 270 275 279 283 295 294 297 302 299 303 290 296 301 300 301 302 302 302 302 305 303 303 308
231 241 277 286 294 276 290 294 287 279 266 258 259 262 266 264 264 272 273 276 276 287 304 295 297 290 296 303 305 302 305 306 307 305 304 303 301 302
262 241 247 268 277 276 276 276 275 279 275 267 257 263 264 261 254 257 263 271 273 277 271 281 292 289 299 306 313 318 319 317 312 308 307 307 305 303
336 295 259 258 287 301 286 278 284 292 296 282 277 278 279 279 271 265 267 272 280 282 266 272 290 298 295 293 309 320 322 320 316 315 317 320 319 317
350 320 303 300 301 305 288 271 281 289 300 304 303 302 303 297 289 265 256 259 274 281 269 282 287 308 306 294 304 321 325 323 324 322 321 324 328 334
326 321 313 317 310 306 301 283 279 290 291 294 299 302 308 309 302 290 268 251 258 267 268 274 282 291 281 294 305 308 319 317 323 326 324 326 331 336
315 308 314 326 325 317 313 314 308 310 314 314 312 309 311 309 301 295 283 268 256 263 273 263 264 274 285 291 295 303 309 315 316 317 322 324 325 324
353 344 342 344 344 340 344 340 329 327 335 318 304 300 299 298 299 297 288 282 285 282 279 273 258 264 262 270 284 295 304 307 310 309 314 315 311 316
4 3 3 3 4 7 8 1 359 357 336 304 299 306 312 313 308 299 296 308 313 309 307 298 284 260 266 269 271 285 292 295 310 309 310 311 319 320
15 27 18 9 20 19 15 6 2 360 354 333 316 316 319 322 319 315 299 309 296 298 312 318 318 296 256 261 275 278 287 291 292 303 308 307 305 311
33 34 16 11 8 1 359 355 351 347 340 338 334 320 318 320 322 325 318 302 295 299 303 313 325 328 314 282 248 270 287 289 299 304 298 296 300 308
43 27 4 360 356 353 350 343 334 332 335 335 331 325 322 324 324 323 323 317 310 305 302 305 315 319 316 311 304 268 271 295 305 305 300 288 287 296
27 5 347 345 341 338 336 331 328 331 336 332 326 321 321 323 324 323 323 318 310 310 315 317 314 301 274 281 292 301 298 285 294 298 301 295 289 292
357 343 333 328 325 325 325 322 322 321 323 322 322 322 319 320 318 317 316 318 313 309 316 317 307 310 289 286 294 302 308 315 301 290 296 300 305 315
331 324 321 319 316 315 317 319 320 320 320 316 316 318 317 313 309 311 310 309 311 309 305 308 316 330 337 316 305 307 316 325 330 324 311 288 279 300
311 308 308 310 310 312 310 310 311 311 310 309 312 312 314 315 307 302 305 310 311 313 314 320 332 341 332 311 307 309 318 325 329 337 341 347 329 300
Height
1473 1474 1474 1475 1475 1475 1476 1476 1476 1473 1470 1470 1471 1470 1470 1469 1467 1466 1465 1464 1462 1461 1460 1459 1457 1456 1454 1452 1451 1449 1447 1445 1444 1442 1440 1439 1437 1435
1468 1469 1469 1470 1471 1471 1471 1471 1472 1471 1468 1466 1466 1466 1465 1464 1463 1462 1460 1459 1457 1456 1455 1454 1452 1451 1449 1447 1445 1444 1442 1440 1438 1437 1435 1433 1431 1430
1463 1464 1465 1465 1466 1466 1467 1467 1467 1466 1464 1461 1462 1461 1460 1459 1458 1457 1455 1454 1452 1451 1450 1448 1447 1446 1444 1442 1440 1439 1437 1435 1433 1431 1430 1428 1426 1425
1458 1459 1460 1461 1461 1461 1462 1461 1462 1461 1460 1457 1456 1456 1455 1454 1453 1452 1450 1449 1447 1446 1445 1444 1442 1440 1439 1437 1435 1434 1432 1430 1428 1427 1425 1424 1422 1420
1454 1454 1455 1455 1456 1456 1456 1456 1456 1456 1456 1454 1451 1451 1450 1449 1448 1447 1445 1444 1442 1441 1440 1439 1437 1435 1433 1432 1430 1429 1427 1425 1424 1422 1420 1419 1417 1415
1449 1450 1450 1451 1451 1451 1451 1452 1452 1451 1451 1449 1447 1446 1445 1445 1444 1442 1440 1439 1437 1436 1435 1434 1432 1431 1429 1427 1425 1424 1422 1420 1419 1417 1415 1414 1413 1411
1444 1445 1446 1446 1447 1447 1447 1447 1447 1447 1446 1445 1443 1442 1441 1440 1439 1438 1436 1434 1432 1432 1430 1429 1428 1426 1424 1422 1420 1419 1417 1415 1414 1412 1411 1409 1408 1406
1440 1441 1441 1442 1442 1442 1443 1443 1443 1442 1441 1440 1439 1438 1436 1436 1435 1434 1433 1430 1428 1428 1426 1424 1423 1421 1420 1418 1416 1414 1412 1411 1409 1407 1406 1404 1403 1402
1436 1437 1437 1438 1438 1438 1438 1438 1438 1437 1437 1437 1435 1433 1432 1432 1431 1430 1429 1427 1425 1424 1423 1420 1419 1417 1416 1414 1412 1410 1408 1407 1405 1403 1402 1400 1399 1397
1433 1434 1434 1434 1434 1434 1433 1433 1432 1432 1432 1432 1431 1429 1429 1428 1427 1426 1425 1423 1421 1420 1419 1416 1415 1413 1412 1410 1409 1407 1405 1402 1400 1399 1398 1396 1395 1393
1430 1431 1431 1430 1430 1430 1430 1429 1428 1427 1428 1427 1426 1425 1424 1424 1423 1422 1421 1419 1417 1416 1415 1413 1411 1409 1408 1406 1405 1403 1401 1398 1396 1395 1394 1392 1391 1390
1427 1427 1427 1427 1427 1427 1426 1425 1424 1423 1424 1423 1422 1421 1420 1419 1419 1418 1417 1416 1414 1413 1412 1411 1409 1407 1404 1402 1401 1400 1397 1395 1393 1391 1390 1389 1388 1386
1424 1424 1424 1424 1424 1423 1423 1422 1421 1421 1420 1419 1418 1417 1416 1415 1415 1414 1413 1413 1411 1410 1409 1408 1406 1405 1403 1400 1398 1397 1394 1392 1390 1388 1387 1386 1384 1383
1421 1422 1421 1421 1421 1420 1420 1419 1418 1418 1417 1415 1414 1413 1412 1412 1411 1410 1410 1409 1408 1408 1407 1406 1404 1402 1400 1398 1395 1394 1392 1390 1388 1386 1384 1383 1381 1380
1420 1420 1419 1419 1418 1417 1417 1416 1415 1415 1413 1412 1411 1410 1410 1409 1408 1407 1406 1406 1405 1404 1403 1402 1401 1399 1398 1396 1393 1391 1389 1387 1386 1384 1382 1380 1379 1377
1418 1418 1417 1417 1416 1415 1414 1414 1413 1412 1411 1410 1409 1408 1407 1406 1405 1404 1403 1402 1401 1401 1400 1399 1398 1397 1395 1393 1392 1390 1388 1386 1384 1382 1380 1378 1377 1375
1417 1416 1416 1415 1414 1413 1412 1412 1411 1410 1409 1408 1407 1406 1405 1404 1403 1402 1401 1400 1399 1398 1397 1396 1395 1394 1393 1392 1389 1388 1386 1384 1382 1380 1378 1376 1374 1373
1416 1415 1414 1413 1413 1412 1411 1410 1409 1408 1408 1407 1405 1404 1403 1402 1401 1400 1399 1398 1397 1396 1395 1394 1393 1391 1391 1389 1388 1385 1384 1381 1380 1378 1376 1374 1371 1371
1415 1414 1413 1413 1412 1411 1410 1409 1408 1407 1407 1405 1404 1403 1402 1401 1400 1398 1398 1397 1396 1394 1393 1392 1391 1390 1388 1386 1385 1384 1382 1380 1378 1376 1374 1372 1370 1368
1414 1413 1412 1412 1411 1410 1409 1408 1407 1406 1405 1404 1403 1402 1401 1399 1398 1397 1396 1395 1394 1393 1392 1391 1389 1388 1387 1386 1383 1382 1381 1379 1376 1374 1372 1370 1368 1367
1413 1412 1411 1411 1410 1409 1408 1407 1406 1405 1404 1403 1401 1400 1399 1398 1397 1396 1395 1394 1393 1392 1390 1389 1388 1387 1386 1384 1382 1380 1379 1378 1375 1373 1370 1368 1365 1363
1411 1411 1410 1409 1408 1408 1407 1406 1405 1403 1402 1401 1400 1399 1398 1397 1396 1395 1394 1393 1392 1391 1390 1388 1387 1386 1385 1383 1380 1378 1377 1376 1374 1372 1370 1367 1365 1362
1410 1409 1409 1408 1407 1406 1405 1404 1403 1402 1401 1400 1399 1398 1397 1396 1395 1394 1393 1392 1391 1390 1389 1387 1386 1385 1384 1382 1380 1378 1376 1374 1372 1370 1368 1366 1364 1362